User: anonymous   Login
Location: ???????
(55.8719°N, 38.1523°E)
Time: 00:38:17
(UTC+00:00)
Language:

Cosmos 2026 Rocket - Orbit

View from above orbital plane
View from above orbital plane
View from above satellite
View from above satellite

Ground track
Ground track

The orbit data is extracted from the following two-line orbital elements,

1 20046U 89042B   24168.83254955  .00000195  00000-0  17611-3 0  9991
2 20046  82.9363 197.4169 0043511  98.0863 262.5234 13.78439783761214
Epoch (UTC): 16 June 2024 19:58:52
Eccentricity: 0.0043511
inclination: 82.9363°
perigee height: 937 km
apogee height: 1001 km
right ascension of ascending node: 197.4169°
argument of perigee: 98.0863°
revolutions per day: 13.78439783
mean anomaly at epoch: 262.5234°
orbit number at epoch: 76121

The dashed part of the orbit path shows where the satellite is in the earth's shadow,  

DLR